This is the latest recevied weather packets stored in our database for station/object KGRR-WX. If no packets are shown the sender has not sent any weather packets the latest 10 day(s).
| Time | Temp. | Humidity | Pressure | Rain* | Wind** | Luminosity | Snow |
|---|---|---|---|---|---|---|---|
| 1777539619 | 2.78° C | 89% | 987.3 hPa | 0 mm | - | - | - |
| 1777538704 | 2.78° C | 87% | 986.3 hPa | 0 mm | - | - | - |
| 1777537822 | 2.78° C | 86% | 986.7 hPa | 0 mm | - | - | - |
| 1777536905 | 2.78° C | 86% | 986.7 hPa | 0 mm | - | - | - |
| 1777536026 | 3.33° C | 88% | 986.7 hPa | 0 mm | - | - | - |
| 1777535105 | 3.33° C | 82% | 986.5 hPa | 0 mm | - | - | - |
| 1777534221 | 3.89° C | 82% | 986.5 hPa | 0 mm | - | - | - |
| 1777533304 | 3.89° C | 82% | 986.5 hPa | 0 mm | - | - | - |
| 1777532423 | 4.44° C | 82% | 986.5 hPa | 0 mm | - | - | - |
| 1777531505 | 5° C | 89% | 987.5 hPa | 0 mm | - | - | - |
| 1777530621 | 5° C | 83% | 986.8 hPa | 0 mm | - | - | - |
| 1777529704 | 5° C | 83% | 986.8 hPa | 0 mm | - | - | - |
| 1777528827 | 5.56° C | 83% | 986.8 hPa | 0 mm | - | - | - |
| 1777527904 | 5.56° C | 89% | 986.3 hPa | 0.51 mm | - | - | - |
| 1777527021 | 5.56° C | 85% | 986.6 hPa | 0.51 mm | - | - | - |
| 1777526104 | 5° C | 85% | 986.6 hPa | 0 mm | - | - | - |
| 1777525224 | 5.56° C | 85% | 986.6 hPa | 0 mm | - | - | - |
| 1777524305 | 5.56° C | 91% | 986.5 hPa | 0.51 mm | - | - | - |
| 1777523421 | 5.56° C | 90% | 986.8 hPa | 0.51 mm | - | - | - |
| 1777522505 | 5.56° C | 90% | 986.8 hPa | 0.25 mm | - | - | - |
| 1777521624 | 5.56° C | 90% | 986.8 hPa | 0.25 mm | - | - | - |
| 1777520704 | 5.56° C | 92% | 986.1 hPa | 0 mm | - | - | - |
| 1777519820 | 5.56° C | 89% | 985.8 hPa | 0 mm | - | - | - |
| 1777518904 | 5.56° C | 89% | 985.8 hPa | 0 mm | - | - | - |
| 1777518025 | 5.56° C | 89% | 985.8 hPa | 0 mm | - | - | - |
* Rain latest hour (hover to see other rain measurements)
** Current wind speed in m/s (hover to see current wind gust speed)